Tracking 25703 objects as of 2-Jul-2022
HD Live streaming from Space Station
objects crossing your sky now

GALILEO-FM2

Track GALILEO-FM2 now!
GALILEO-FM2 is classified as:


NORAD ID: 37847
Int'l Code: 2011-060B
Perigee: 23,219.9 km
Apogee: 23,238.4 km
Inclination: 57.0 °
Period: 844.7 minutes
Semi major axis: 29600 km
RCS: 48.7715 m2 (large)
Launch date: October 21, 2011
Source: European Space Agency (ESA)
Launch site: FRENCH GUIANA (FRGUI)

GALILEO-FM2 is a navigation satellite part of the European Union's Galileo program.
aabbcc
Your satellite tracking list
Your tracking list is empty




NASA's NSSDC Master Catalog

Two Line Element Set (TLE):
1 37847U 11060B   22181.38174497 -.00000076  00000-0  00000-0 0  9998
2 37847  57.0024  20.9834 0003124  13.1194 171.8134  1.70475622 66443
Source of the keplerian elements: AFSPC